This is the latest recevied weather packets stored in our database for station/object KI4BSX. If no packets are shown the sender has not sent any weather packets the latest 10 day(s).
| Time | Temp. | Humidity | Pressure | Rain* | Wind** | Luminosity | Snow |
|---|---|---|---|---|---|---|---|
| 1778166505 | 18.33° C | 99% | 1013.3 hPa | 0 mm | - | - | - |
| 1778166201 | 18.33° C | 99% | 1013.3 hPa | 0 mm | - | - | - |
| 1778165897 | 18.33° C | 99% | 1013.3 hPa | 0 mm | - | - | - |
| 1778165594 | 18.33° C | 99% | 1013.4 hPa | 0 mm | - | - | - |
| 1778165291 | 18.33° C | 99% | 1013.4 hPa | 1.27 mm | - | - | - |
| 1778164988 | 17.78° C | 99% | 1013.5 hPa | 4.32 mm | - | - | - |
| 1778164684 | 17.78° C | 99% | 1013.6 hPa | 4.83 mm | - | - | - |
| 1778164383 | 17.78° C | 99% | 1013.8 hPa | 3.05 mm | - | - | - |
| 1778164077 | 17.78° C | 99% | 1014.1 hPa | 3.05 mm | - | - | - |
| 1778163768 | 17.78° C | 99% | 1013.8 hPa | 1.78 mm | - | - | - |
| 1778163464 | 17.78° C | 99% | 1013.6 hPa | 1.78 mm | - | - | - |
| 1778163162 | 17.78° C | 99% | 1013.4 hPa | 0 mm | - | - | - |
| 1778162858 | 17.78° C | 99% | 1013.2 hPa | 1.27 mm | - | - | - |
| 1778162556 | 17.78° C | 99% | 1012.7 hPa | 1.27 mm | - | - | - |
| 1778162252 | 17.78° C | 99% | 1012.9 hPa | 0 mm | - | - | - |
| 1778161950 | 17.78° C | 99% | 1012.6 hPa | 0 mm | - | - | - |
| 1778161646 | 17.78° C | 99% | 1013.3 hPa | 0 mm | - | - | - |
| 1778161343 | 17.78° C | 99% | 1013.3 hPa | 0 mm | - | - | - |
| 1778161038 | 17.78° C | 99% | 1013.1 hPa | 3.05 mm | - | - | - |
| 1778160735 | 17.78° C | 99% | 1012.9 hPa | 4.83 mm | - | - | - |
| 1778160433 | 17.78° C | 99% | 1013.2 hPa | 1.78 mm | - | - | - |
| 1778160129 | 17.78° C | 99% | 1012.5 hPa | 1.27 mm | - | - | - |
| 1778159827 | 17.78° C | 99% | 1013.2 hPa | 4.32 mm | - | - | - |
| 1778159524 | 17.78° C | 99% | 1013.1 hPa | 4.83 mm | - | - | - |
| 1778159220 | 17.78° C | 99% | 1013.4 hPa | 3.05 mm | - | - | - |
* Rain latest hour (hover to see other rain measurements)
** Current wind speed in m/s (hover to see current wind gust speed)